World > North America > United States > Minnesota

Hourly Huntersville, MN Regional Weather

Feedback E-mail the Weather

Quick WX

Huntersville, MN Weather Maps

°F °C°F °C
Huntersville Weather Map
UTC Time: 7/3/2022, 08:46
Your Time:

Huntersville, MN Regional Weather

Expires:202207030900;;597235
ASUS43 KMPX 030810
RWRMN 
WEATHER ROUNDUP FOR MINNESOTA
NATIONAL WEATHER SERVICE TWIN CITIES/CHANHASSEN MN
300 AM CDT SUN JUL 03 2022


NOTE: "FAIR" INDICATES FEW OR NO CLOUDS BELOW 12,000 FEET WITH NO
SIGNIFICANT WEATHER AND/OR OBSTRUCTIONS TO VISIBILITY. N/A MEANS
CURRENT SKY AND/OR WEATHER CONDITIONS ARE NOT AVAILABLE.


MNZ029>031-032-039>041-046>048-054>057-064-030900-
   West Central Minnesota   
  
CITY           SKY/WX    TMP DP  RH WIND       PRES   REMARKS
FERGUS FALLS   PTCLDY    64  59  82 SE5       30.01R                  
WHEATON        MOCLDY    64  59  82 E5        30.03S                  
MORRIS           N/A     64  59  82 SE7       30.04S                  
ALEXANDRIA     MOCLDY    64  61  90 SE6       30.07S                  
ELBOW LAKE     FAIR      65  63  91 SE7       30.04S                  
WADENA         CLEAR     55  54  94 CALM      30.06S                  
GLENWOOD       CLEAR     63  63 100 CALM      30.06S                  
APPLETON         N/A     66  59  77 SE8       30.02S                  
BENSON         PTCLDY    64  61  88 S6        30.04F                  
ORTONVILLE       N/A     64  61  88 SE6       30.02S                  
MADISON        PTCLDY    66  61  82 SE7       30.04R                  
WILLMAR        FAIR      64  61  88 SE6       30.08S                  
$$

SKY/WX - Weather  TMP - Temperature  DP - Dew Point  RH - Humidity
WIND - Wind Direction/Speed PRES - Barometric Pressure VSB - Visibility
WCI - Wind Chill Index E13G22 Wind - East Wind 13 mph/Gusts of 22 mph

Trending Headlines

Huntersville Radar Loop



Huntersville Quick Facts


National Two Day Weather Forecast


E-mail the Huntersville Weather Forecast

Voice your opinion or tell us about page issues...